Regional Weather Roundup
Issued by NWS

Home | Current Version | Previous Version | Text Only | Print | Product List | Glossary Off
Versions: 1 2 3 4 5 6 7 8 9 10 11 12 13 14 15 16 17 18 19 20 21 22 23 24 25 26 27 28 29 30 31 32 33 34 35 36 37 38 39 40 41 42 43 44 45 46 47 48 49 50

000
ASUS43 KOAX 011010
RWRNE

WEATHER ROUNDUP FOR NEBRASKA
NATIONAL WEATHER SERVICE OMAHA NE
500 AM CDT WED OCT 01 2014

NOTES: SATELLITE DATA IS BEING USED TO AUGMENT CLOUD COVER ABOVE
       12000 FEET.
       "FAIR" INDICATES FEW OR NO CLOUDS BELOW 12,000 FEET WITH NO
       SIGNIFICANT WEATHER AND/OR OBSTRUCTIONS TO VISIBILITY.

  * THESE STATIONS DO NOT REPORT WEATHER SUCH AS RAIN...SNOW OR FOG.

NEZ001>004-019>022-054>056-011100-
NEBRASKA PANHANDLE

CITY           SKY/WX    TMP DP  RH WIND       PRES   REMARKS
SCOTTSBLUFF    CLEAR     46  44  93 NW6       29.83R
ALLIANCE       MOCLDY    43  42  97 W6        29.80R
CHADRON        PTCLDY    47  45  93 SW7       29.79R
KIMBALL        CLEAR     44  40  88 W5        29.84S
SIDNEY         CLEAR     48  42  80 W10       29.84S
$$

NEZ057>060-069>072-079>082-011100-
SOUTHWEST NEBRASKA

CITY           SKY/WX    TMP DP  RH WIND       PRES   REMARKS
NORTH PLATTE   PTCLDY    48  45  89 CALM      29.76S
IMPERIAL       CLEAR     51  44  77 W5        29.79R
LEXINGTON      PTCLDY    58  57  97 NW5       29.76R FOG
MCCOOK         PTCLDY    55  53  93 N3        29.75S FOG
OGALLALA       PTCLDY    49  47  93 W5        29.79R
$$

NEZ005>010-023>029-035>040-094-011100-
NORTH CENTRAL NEBRASKA

CITY           SKY/WX    TMP DP  RH WIND       PRES   REMARKS
VALENTINE      CLOUDY    51  47  86 CALM      29.73R
AINSWORTH      PTCLDY    53  46  78 W8        29.72R
BROKEN BOW     LGT RAIN  63  48  58 S8G31     29.74F
O`NEILL        DRIZZLE   61  60  97 SW7       29.73R
ORD            CLOUDY    60  57  89 W3        29.73S
THEDFORD       CLOUDY    59  47  65 W6        29.76R
$$

NEZ041-046>049-061>064-073>077-083>087-011100-
SOUTH CENTRAL NEBRASKA

CITY           SKY/WX    TMP DP  RH WIND       PRES   REMARKS
GRAND ISLAND   FOG       61  60  97 N3        29.72R VSB 1/4
AURORA         FOG       61  61 100 CALM      29.71S VSB 1/4
HASTINGS       FOG       62  59  90 S3        29.71S VSB 1/4
HEBRON         CLOUDY    64  62  91 CALM      29.69S FOG
HOLDREGE       FOG       62  60  96 CALM      29.73R VSB 1/4
KEARNEY *      CLOUDY    63  61  94 SW5       29.74R
YORK           CLOUDY    55  55 100 CALM      29.71R
$$

NEZ011>018-030>034-042>045-011100-
NORTHEAST NEBRASKA

CITY           SKY/WX    TMP DP  RH WIND       PRES   REMARKS
NORFOLK        CLOUDY    62  60  93 S7        29.72R
ALBION         CLOUDY    62  60  94 CALM      29.72R
BLAIR          RAIN      63  60  93 CALM      29.71R
COLUMBUS *     MOCLDY    55  54  94 CALM      29.72S
FREMONT        CLOUDY    63  61  94 E3        29.71R
TEKAMAH        CLOUDY    61  59  93 S5        29.72R
WAYNE          CLOUDY    62  60  95 S3        29.72R
$$

NEZ050>053-065>068-078-088>093-011100-
SOUTHEAST NEBRASKA

CITY           SKY/WX    TMP DP  RH WIND       PRES   REMARKS
LINCOLN        LGT RAIN  62  60  93 E14       29.72R
OMAHA EPPLEY   HVY RAIN  63  59  87 S6        29.71R
BEATRICE       CLOUDY    65  64  96 E3        29.70S
FALLS CITY     LGT RAIN  66  64  93 SE7       29.71F
NEBRASKA CITY  LGT RAIN  61  61 100 E6        29.72F
PLATTSMOUTH      N/A     61  59  94 SE7       29.71F
$$

NEZ044-045-051>053-067-011100-
OMAHA AREA

CITY           SKY/WX    TMP DP  RH WIND       PRES   REMARKS
OMAHA EPPLEY   HVY RAIN  63  59  87 S6        29.71R
BLAIR          RAIN      63  60  93 CALM      29.71R
FREMONT        CLOUDY    63  61  94 E3        29.71R
MILLARD        HVY RAIN  63  60  92 CALM      29.72R
OFFUTT AFB     CLOUDY    63  63 100 E6        29.70S
PLATTSMOUTH      N/A     61  59  94 SE7       29.71F
WAHOO          CLOUDY    62  59  92 SE5       29.71R
$$


USA.gov is the U.S. government's official web portal to all federal, state and local government web resources and services.